Estación de Rauco

Ultimos registro cada 15 minutos 77
Estación Fecha / Hora Temperatura Humedad Lluvia Velocidad Dirección Radiación Presion
77 Rauco 09-05-2026 19:00 11,9 68 0 0 252 0 1016,5
76 Rauco 09-05-2026 18:45 12,8 67 0 0 247 0 1016,6
75 Rauco 09-05-2026 18:30 13,6 63 0 0 246 0 1016,5
74 Rauco 09-05-2026 18:15 14,2 62 0 0 251 0 1016,4
73 Rauco 09-05-2026 18:00 14,5 61 0 0,4 251 0 1016,6
72 Rauco 09-05-2026 17:45 15,3 60 0 0 247 5 1016,4
71 Rauco 09-05-2026 17:30 15,9 58 0 0 241 11 1016,4
70 Rauco 09-05-2026 17:15 16,4 57 0 1,3 241 18 1016,3
69 Rauco 09-05-2026 17:00 17,1 55 0 0,9 244 21 1016,4
68 Rauco 09-05-2026 16:45 18 52 0 0,4 256 26 1016,3
67 Rauco 09-05-2026 16:30 18,4 51 0 0,4 253 179 1016,7
66 Rauco 09-05-2026 16:15 18,6 51 0 1,8 253 234 1016,6
65 Rauco 09-05-2026 16:00 18,4 51 0 0 290 272 1016,6
64 Rauco 09-05-2026 15:45 18,2 53 0 0,4 230 309 1016,6
63 Rauco 09-05-2026 15:30 17,4 53 0 0,4 234 345 1016,7
62 Rauco 09-05-2026 15:15 16,7 55 0 0,9 209 39 1016,5
61 Rauco 09-05-2026 15:00 16,3 57 0 0,9 105 35 1016,6
60 Rauco 09-05-2026 14:45 16,1 57 0 0,4 239 35 1016,7
59 Rauco 09-05-2026 14:30 15,7 58 0 0,4 245 37 1016,6
58 Rauco 09-05-2026 14:15 15,4 59 0 0,4 244 385 1016,8
57 Rauco 09-05-2026 14:00 14,7 61 0 0,4 253 93 1016,8
56 Rauco 09-05-2026 13:45 14,2 63 0 0,9 246 69 1017,1
55 Rauco 09-05-2026 13:30 13,8 64 0 0,4 248 37 1017,3
54 Rauco 09-05-2026 13:15 13,2 66 0 0,9 175 37 1017,3
53 Rauco 09-05-2026 13:00 12,7 68 0 0 175 47 1017,4
52 Rauco 09-05-2026 12:45 12,2 69 0 0 175 46 1017,7
51 Rauco 09-05-2026 12:30 11,8 70 0 0,9 175 39 1018
50 Rauco 09-05-2026 12:15 11,2 72 0 2,2 175 39 1018,4
49 Rauco 09-05-2026 12:00 10,9 71 0 0 175 40 1018,3
48 Rauco 09-05-2026 11:45 10,7 72 0 0,4 175 39 1018,5
47 Rauco 09-05-2026 11:30 10,4 73 0 0,4 226 137 1018,4
46 Rauco 09-05-2026 11:15 10,6 72 0 1,3 175 91 1018,2
45 Rauco 09-05-2026 11:00 9,9 74 0 0 126 91 1018,6
44 Rauco 09-05-2026 10:45 9,4 75 0 0,4 269 446 1018,7
43 Rauco 09-05-2026 10:30 9,2 76 0 0,4 138 162 1018,9
42 Rauco 09-05-2026 10:15 9 77 0 0 117 399 1018,9
41 Rauco 09-05-2026 10:00 8,7 78 0 0,4 219 371 1019
40 Rauco 09-05-2026 09:45 8,3 77 0 0,4 247 336 1019,1
39 Rauco 09-05-2026 09:30 8,1 79 0 0,4 245 39 1018,9
38 Rauco 09-05-2026 09:15 7,7 80 0 0,4 257 37 1019
37 Rauco 09-05-2026 09:00 7,3 82 0 0,4 256 220 1019,1
36 Rauco 09-05-2026 08:45 6,9 84 0 0,9 253 174 1019,2
35 Rauco 09-05-2026 08:30 6,5 85 0 0,9 240 121 1019,2
34 Rauco 09-05-2026 08:15 6,3 86 0 0,4 268 76 1019,3
33 Rauco 09-05-2026 08:00 6,2 87 0 0 250 42 1019,3
32 Rauco 09-05-2026 07:45 6,6 86 0 0 250 11 1019,4
31 Rauco 09-05-2026 07:30 6,9 87 0 0,4 246 0 1019,4
30 Rauco 09-05-2026 07:15 7,2 87 0 0 246 0 1019,3
29 Rauco 09-05-2026 07:00 7,3 87 0 0,4 246 0 1019,5
28 Rauco 09-05-2026 06:45 7,4 87 0 0 246 0 1019,5
27 Rauco 09-05-2026 06:30 7,5 87 0 0 240 0 1019,6
26 Rauco 09-05-2026 06:15 7,8 86 0 0 236 0 1019,6
25 Rauco 09-05-2026 06:00 7,9 86 0 0 251 0 1019,7
24 Rauco 09-05-2026 05:45 8,1 86 0 0,4 249 0 1019,6
23 Rauco 09-05-2026 05:30 8,3 87 0 0 246 0 1019,4
22 Rauco 09-05-2026 05:15 8,4 87 0 0,4 203 0 1019,2
21 Rauco 09-05-2026 05:00 8,5 86 0 0 192 0 1019,1
20 Rauco 09-05-2026 04:45 8,6 86 0 0 278 0 1019,2
19 Rauco 09-05-2026 04:30 8,8 86 0 0,4 224 0 1019,2
18 Rauco 09-05-2026 04:15 8,9 86 0 0 250 0 1019,3
17 Rauco 09-05-2026 04:00 8,9 87 0 0,4 250 0 1019,4
16 Rauco 09-05-2026 03:45 8,9 88 0 0 249 0 1019,5
15 Rauco 09-05-2026 03:30 8,9 88 0 0,4 231 0 1019,6
14 Rauco 09-05-2026 03:15 8,9 89 0 0 255 0 1019,7
13 Rauco 09-05-2026 03:00 9,3 89 0 0 142 0 1019,7
12 Rauco 09-05-2026 02:45 9,5 88 0 1,3 244 0 1019,9
11 Rauco 09-05-2026 02:30 9,6 88 0 0,4 249 0 1019,8
10 Rauco 09-05-2026 02:15 9,7 88 0 1,3 253 0 1019,9
9 Rauco 09-05-2026 02:00 9,9 87 0 0,4 353 0 1020
8 Rauco 09-05-2026 01:45 10,2 87 0 0,4 246 0 1020,1
7 Rauco 09-05-2026 01:30 10,3 87 0 0,9 236 0 1020,1
6 Rauco 09-05-2026 01:15 10,3 87 0 0 277 0 1020,1
5 Rauco 09-05-2026 01:00 10,3 88 0 0 260 0 1020
4 Rauco 09-05-2026 00:45 10,3 88 0 0 259 0 1020
3 Rauco 09-05-2026 00:30 10,2 89 0 0 259 0 1020
2 Rauco 09-05-2026 00:15 10,2 88 0 0 259 0 1020,1
1 Rauco 09-05-2026 00:00 10,1 88 0 0 259 0 1020,1